カタログに戻る

GECAM-A

運用中科学VLEO
NORAD 47234·PAYLOAD·🇨🇳 China

打ち上げ Dec 9, 2020 から Xichang Satellite Launch Center

Loading…

次のパス (今後24時間)

TLE

古いSource: Space-Track

元期: Jun 17, 2026, 06:46 UTC

1 47234U 20094A   26168.28213975  .00001679  00000-0  11743-3 0  9997
2 47234  28.9954  25.3931 0010614 318.1471  41.8315 15.00786144301708

AllMySatでGECAM-Aをリアルタイム追跡

Download on the App Store